sat.trackr.live / text

‹ back to catalog

STARLINK-35851

NORAD 66356 · 2025-254J

PAYLOAD ACTIVE UNKNOWN

§ Identity

Operator
Country
US
Launch date
2025-11-06
Launch site
AFWTR
Launch vehicle
Mass (kg)
RCS (m²)

Purposes: comms

External: N2YO · Heavens-Above · Gunter

§ Orbital elements

Epoch: 2026-09-20T13:43:52.082112Z

Period
93.85 min
Inclination
53.1580°
Eccentricity
0.0001265
Mean motion
15.34405445 rev/d
Perigee alt
461.8 km
Apogee alt
463.6 km
Semi-major
6,840.8 km
B*
4.2516e-4
RAAN
45.0759°
Arg perigee
76.0214°
Mean anomaly
284.0929°
Rev number
4,884

§ Raw data

STARLINK-358511 66356U 25254J   26263.57213058  .00014018  00000+0  42516-3 0  99982 66356  53.1580  45.0759 0001265  76.0214 284.0929 15.34405445 48847

JSON: /api/v1/satellites/66356 · /tle

For live sub-satellite position, see the globe view (requires WebGL).

§ Visibility from observer

Set your observer location to see the next 7 days of passes ≥ 10°. The values pass through the URL so the page stays shareable.

No JS? Fill the form by hand. The geolocation button needs JavaScript.